Regional Weather Roundup
Issued by NWS

Home | Current Version | Previous Version | Graphics & Text | Print | Product List | Glossary On
Versions: 1 2 3 4 5 6 7 8 9 10 11 12 13 14 15 16 17 18 19 20 21 22 23 24 25 26 27 28 29 30 31 32 33 34 35 36 37 38 39 40 41 42 43 44 45 46 47 48 49 50
000
ASUS43 KOAX 281110
RWRNE

WEATHER ROUNDUP FOR NEBRASKA
NATIONAL WEATHER SERVICE OMAHA NE
600 AM CDT FRI JUL 28 2017

NOTES: SATELLITE DATA IS BEING USED TO AUGMENT CLOUD COVER ABOVE
       12000 FEET.
       "FAIR" INDICATES FEW OR NO CLOUDS BELOW 12,000 FEET WITH NO
       SIGNIFICANT WEATHER AND/OR OBSTRUCTIONS TO VISIBILITY.


NEZ001>004-019>022-054>056-281200-
NEBRASKA PANHANDLE

CITY           SKY/WX    TMP DP  RH WIND       PRES   REMARKS
SCOTTSBLUFF    CLOUDY    66  61  84 SE3       30.09S
ALLIANCE       CLOUDY    63  60  90 MISG      30.10R
CHADRON        CLOUDY    62  59  90 S12       30.06F
GORDON         FAIR      61  59  92 CALM      30.08S
KIMBALL        CLOUDY    62  62  98 SE8       30.14F
SIDNEY         CLOUDY    64  59  83 SE9       30.11F
$$

NEZ057>060-069>072-079>082-281200-
SOUTHWEST NEBRASKA

CITY           SKY/WX    TMP DP  RH WIND       PRES   REMARKS
NORTH PLATTE   CLOUDY    68  63  84 SE12      30.04F
IMPERIAL       LGT RAIN  65  62  90 E10       30.07F
LEXINGTON      CLOUDY    66  64  91 CALM      30.09R
MCCOOK         CLOUDY    67  63  87 N6        30.10R
OGALLALA       PTCLDY    65  63  94 CALM      30.07F
$$

NEZ005>010-023>029-035>040-094-281200-
NORTH CENTRAL NEBRASKA

CITY           SKY/WX    TMP DP  RH WIND       PRES   REMARKS
VALENTINE      CLOUDY    68  59  73 E8        30.07R
AINSWORTH      MOCLDY    66  63  89 CALM      30.08R
BROKEN BOW     MOCLDY    65  62  90 SE5       30.07S
O`NEILL        CLOUDY    67  65  96 CALM      30.08S
ORD            CLOUDY    64  62  93 CALM      30.05S
THEDFORD       CLOUDY    67  63  87 SE8       30.07R
$$

NEZ041-046>049-061>064-073>077-083>087-281200-
SOUTH CENTRAL NEBRASKA

CITY           SKY/WX    TMP DP  RH WIND       PRES   REMARKS
GRAND ISLAND   PTCLDY    62  62 100 N5        30.07R FOG
AURORA         PTCLDY    60  60 100 CALM      30.06S
HASTINGS       PTCLDY    62  59  90 CALM      30.07R
HEBRON         PTCLDY    64  62  93 CALM      30.04S
HOLDREGE       MOCLDY    62  60  95 CALM      30.07S
KEARNEY        PTCLDY    63  61  93 CALM      30.08S
YORK           PTCLDY    61  61 100 CALM      30.06S
$$

NEZ011>018-030>034-042>045-281200-
NORTHEAST NEBRASKA

CITY           SKY/WX    TMP DP  RH WIND       PRES   REMARKS
NORFOLK        CLOUDY    67  61  81 CALM      30.06R
ALBION         CLOUDY    67  65  93 CALM      30.06F
BLAIR          CLEAR     65  64  94 N7        30.04S FOG
COLUMBUS       CLOUDY    64  63  96 E3        30.06R
FREMONT        PTCLDY    64  63  97 CALM      30.04F
TEKAMAH        CLEAR     64  61  90 N6        30.04R
WAYNE          CLEAR     60  60  99 CALM      30.07R
$$

NEZ050>053-065>068-078-088>093-281200-
SOUTHEAST NEBRASKA

CITY           SKY/WX    TMP DP  RH WIND       PRES   REMARKS
LINCOLN        CLEAR     63  62  97 N6        30.04R
OMAHA EPPLEY   PTCLDY    65  62  90 NW5       30.04R
BEATRICE       PTCLDY    64  62  93 NE5       30.03S
FALLS CITY     CLEAR     67  63  87 N5        30.00R
NEBRASKA CITY  CLEAR     65  65 100 N5        30.02R
PLATTSMOUTH    CLEAR     64  61  92 CALM      30.04R
$$

NEZ044-045-051>053-067-281200-
OMAHA AREA

CITY           SKY/WX    TMP DP  RH WIND       PRES   REMARKS
OMAHA EPPLEY   PTCLDY    65  62  90 NW5       30.04R
BLAIR          CLEAR     65  64  94 N7        30.04S FOG
FREMONT        PTCLDY    64  63  97 CALM      30.04F
MILLARD        CLEAR     68  65  93 CALM      30.03S
OFFUTT AFB     PTCLDY    63  61  94 CALM      30.03R
PLATTSMOUTH    CLEAR     64  61  92 CALM      30.04R
WAHOO          FAIR      63  62  97 N5        30.04S
$$




USA.gov is the U.S. government's official web portal to all federal, state and local government web resources and services.